Retour au catalogue

MINOTAUR DEB

ActifLEO
NORAD 26079·DEBRIS·🇺🇸 United States

Lancé Jan 27, 2000 depuis Vandenberg Space Force Base

Loading…

Prochains Passages (prochaines 24 heures)

TLE

FraisSource: Space-Track

Époque: Sep 14, 2026, 09:57 UTC

1 26079U 00004G   26257.41495648  .00000505  00000-0  14696-3 0  9990
2 26079 100.2036 319.6008 0030854 251.4343 174.2161 14.49691116400533

Suivez MINOTAUR DEB en temps réel avec AllMySat

Download on the App Store